STARLINK-1302, 45375

Orbit data source: Space-Track

STARLINK-1302, 45375 is a payload satellite owned by SpaceX/Seattle (US) in LEO that was launched on Wed, 18 Mar 2020 UTC via an FALCON 9 launch vehicle from the Air Force Eastern Test Range (AFETR). Payload-class satellites include a variety of spacecraft equipped with specific instruments for various scientific and technological missions. These include communications satellites like Starlink; space stations such as the ISS; scientific satellites like the Hubble; Earth observation satellites from companies like Planet Labs, Umbra, and HawkEye 360; GPS; miniature CubeSats for education and research; and military/defense satellites.

Loading next visibility...
Identifier
45375, 2020-019R
Orbit
LEO
Country
Flag of USUS
Related business
Manufacturer
SpaceX/Seattle
Mission
Partially operational Commercial Communications
Bus & Motor
STARLINK, Unknown motor
Mass
260 kg wet, ~248 kg dry
Launch date (UTC)
2020-03-18 (6 years ago)
Launch vehicle
FALCON 9
Launch site
Air Force Eastern Test Range (AFETR)
Object type
Payload
Rocket body
Debris
Shape & HBR
Box + 1 Pan, 10.1 m
Radar Cross Section
13.562 m², Large (>1 m²)

Expand to show TLE details & history
Last TLE update: 11 hours ago

TLE from 11 hours ago
0 STARLINK-1302
1 45375U 20019R   26169.85940188  .00041880  00000-0  36771-3 0  9991
2 45375  53.0454  17.4174 0004142 102.3192 257.8288 15.68413134345750
Epoch: 2026-06-18T20:37Z
TLE epoch observation values (Epoch: 2026-06-18T20:37:32.322Z)
Latitude
0.00001°
Longitude
160.93604°
Altitude
364.932 km
Speed
7.691 km/s
True Right ascension
01h 09m 40s
True Declination
0° 00' 00"
Sunlit
Object was in daylight at epoch
Visualization orbit readout
Latitude
Unknown
Longitude
Unknown
Altitude
Unknown
Speed
Unknown
Apparent Right ascension
Unknown
Apparent Declination
Unknown
Sunlit
N/A
Visualization observer readout
Local Sidereal Time
17:57:21
Azimuth
Unknown
Elevation
Unknown
Doppler factor
Unknown
Orbital elements
Apogee altitude
366.512 km
Perigee altitude
360.927 km
Semi-major axis
6,741.857 km
Eccentricity
0.00041
Inclination
53.0454°
RAAN
17.4174°
Arg. of periapsis
102.3192°
True anomaly
257.78241°
Mean anomaly
257.8288°
Eccentric anomaly
257.8056°
Mean motion
3.92079 °/min
Orbital period
91.82 mins
BSTAR
0.00036771
Loading maneuver chart data...
Computing Atmospheric mass density...

Documentation

Showing up to 5 results
|